Time,TemperatureF,DewpointF,PressureIn,WindDirection,WindDirectionDegrees,WindSpeedMPH,WindSpeedGustMPH,Humidity,HourlyPrecipIn,Conditions,Clouds,dailyrainin,SoftwareType,DateUTC
2013-04-11 00:14:00,34.6,21.0,29.88,SSE,156,0.0,0.0,57,0.00,,,0.00,weatherlink.com 1.10,2013-04-11 06:14:00,
2013-04-11 00:29:00,33.9,21.0,29.88,SSE,156,0.0,0.0,59,0.00,,,0.00,weatherlink.com 1.10,2013-04-11 06:29:00,
2013-04-11 00:44:00,33.4,21.0,29.88,SE,142,1.0,3.0,61,0.00,,,0.00,weatherlink.com 1.10,2013-04-11 06:44:00,
2013-04-11 00:59:00,32.8,21.0,29.88,SE,142,0.0,2.0,63,0.00,,,0.00,weatherlink.com 1.10,2013-04-11 06:59:00,
2013-04-11 01:14:00,32.8,21.0,29.87,SE,142,1.0,2.0,63,0.00,,,0.00,weatherlink.com 1.10,2013-04-11 07:14:00,
2013-04-11 01:29:00,33.1,21.0,29.87,SSE,161,2.0,5.0,61,0.00,,,0.00,weatherlink.com 1.10,2013-04-11 07:29:00,
2013-04-11 01:44:00,32.8,21.0,29.87,SSE,161,2.0,2.0,62,0.00,,,0.00,weatherlink.com 1.10,2013-04-11 07:44:00,
2013-04-11 01:59:00,33.3,21.0,29.86,SSE,161,0.0,2.0,61,0.00,,,0.00,weatherlink.com 1.10,2013-04-11 07:59:00,
2013-04-11 02:14:00,32.9,21.0,29.86,SSE,163,0.0,4.0,62,0.00,,,0.00,weatherlink.com 1.10,2013-04-11 08:14:00,
2013-04-11 02:29:00,31.9,21.0,29.86,SSE,163,0.0,0.0,65,0.00,,,0.00,weatherlink.com 1.10,2013-04-11 08:29:00,
2013-04-11 02:44:00,30.8,21.0,29.86,SSE,163,0.0,0.0,67,0.00,,,0.00,weatherlink.com 1.10,2013-04-11 08:44:00,
2013-04-11 02:59:00,30.2,21.0,29.85,SSE,163,0.0,1.0,69,0.00,,,0.00,weatherlink.com 1.10,2013-04-11 08:59:00,
2013-04-11 03:14:00,29.8,21.0,29.85,SSE,162,0.0,0.0,69,0.00,,,0.00,weatherlink.com 1.10,2013-04-11 09:14:00,
2013-04-11 03:30:00,29.6,21.0,29.86,SSE,163,0.0,0.0,70,0.00,,,0.00,weatherlink.com 1.10,2013-04-11 09:30:00,
2013-04-11 03:45:00,29.4,21.0,29.85,SSE,163,0.0,2.0,71,0.00,,,0.00,weatherlink.com 1.10,2013-04-11 09:45:00,
2013-04-11 04:00:00,30.0,21.0,29.85,SSE,163,0.0,0.0,69,0.00,,,0.00,weatherlink.com 1.10,2013-04-11 10:00:00,
2013-04-11 04:15:00,30.6,20.0,29.85,NW,311,2.0,7.0,64,0.00,,,0.00,weatherlink.com 1.10,2013-04-11 10:15:00,
2013-04-11 04:30:00,34.7,18.0,29.85,NW,320,4.0,9.0,50,0.00,,,0.00,weatherlink.com 1.10,2013-04-11 10:30:00,
2013-04-11 04:45:00,35.9,17.0,29.86,NW,325,3.0,9.0,47,0.00,,,0.00,weatherlink.com 1.10,2013-04-11 10:45:00,
2013-04-11 05:00:00,35.3,17.0,29.86,NW,315,0.0,4.0,47,0.00,,,0.00,weatherlink.com 1.10,2013-04-11 11:00:00,
2013-04-11 05:15:00,35.0,17.0,29.86,WNW,303,5.0,5.0,48,0.00,,,0.00,weatherlink.com 1.10,2013-04-11 11:15:00,
2013-04-11 05:30:00,34.8,18.0,29.86,NNW,327,4.0,8.0,50,0.00,,,0.00,weatherlink.com 1.10,2013-04-11 11:30:00,
2013-04-11 05:45:00,34.5,18.0,29.86,NW,322,7.0,7.0,51,0.00,,,0.00,weatherlink.com 1.10,2013-04-11 11:45:00,
2013-04-11 06:00:00,34.4,18.0,29.87,NW,325,1.0,4.0,51,0.00,,,0.00,weatherlink.com 1.10,2013-04-11 12:00:00,
2013-04-11 06:15:00,34.3,18.0,29.87,NW,325,2.0,5.0,51,0.00,,,0.00,weatherlink.com 1.10,2013-04-11 12:15:00,
2013-04-11 06:30:00,34.1,18.0,29.88,NNW,333,0.0,5.0,51,0.00,,,0.00,weatherlink.com 1.10,2013-04-11 12:30:00,
2013-04-11 06:45:00,33.4,17.0,29.88,NNW,333,0.0,0.0,52,0.00,,,0.00,weatherlink.com 1.10,2013-04-11 12:45:00,
2013-04-11 07:00:00,32.9,18.0,29.89,NNW,333,0.0,0.0,54,0.00,,,0.00,weatherlink.com 1.10,2013-04-11 13:00:00,
2013-04-11 07:15:00,33.9,18.0,29.89,NNW,329,0.0,3.0,52,0.00,,,0.00,weatherlink.com 1.10,2013-04-11 13:15:00,
2013-04-11 07:30:00,36.1,18.0,29.89,NNW,328,0.0,4.0,48,0.00,,,0.00,weatherlink.com 1.10,2013-04-11 13:30:00,
2013-04-11 07:45:00,37.4,18.0,29.89,NNW,338,0.0,3.0,46,0.00,,,0.00,weatherlink.com 1.10,2013-04-11 13:45:00,
2013-04-11 08:00:00,38.9,19.0,29.90,NNW,331,0.0,5.0,44,0.00,,,0.00,weatherlink.com 1.10,2013-04-11 14:00:00,
2013-04-11 08:15:00,39.9,18.0,29.90,NNW,340,2.0,8.0,41,0.00,,,0.00,weatherlink.com 1.10,2013-04-11 14:15:00,
2013-04-11 08:30:00,41.1,18.0,29.90,NW,308,0.0,5.0,40,0.00,,,0.00,weatherlink.com 1.10,2013-04-11 14:30:00,
2013-04-11 08:45:00,42.0,17.0,29.91,NW,319,7.0,9.0,37,0.00,,,0.00,weatherlink.com 1.10,2013-04-11 14:45:00,
2013-04-11 09:00:00,42.7,17.0,29.92,North,5,1.0,9.0,36,0.00,,,0.00,weatherlink.com 1.10,2013-04-11 15:00:00,
2013-04-11 09:15:00,43.2,18.0,29.91,WNW,286,2.0,9.0,37,0.00,,,0.00,weatherlink.com 1.10,2013-04-11 15:15:00,
2013-04-11 09:30:00,44.9,19.0,29.91,North,355,2.0,7.0,35,0.00,,,0.00,weatherlink.com 1.10,2013-04-11 15:30:00,
2013-04-11 09:45:00,45.4,18.0,29.90,NNW,348,5.0,11.0,33,0.00,,,0.00,weatherlink.com 1.10,2013-04-11 15:45:00,
2013-04-11 10:00:00,47.2,19.0,29.90,North,5,7.0,13.0,33,0.00,,,0.00,weatherlink.com 1.10,2013-04-11 16:00:00,
2013-04-11 10:15:00,47.9,19.0,29.89,NNE,28,5.0,12.0,32,0.00,,,0.00,weatherlink.com 1.10,2013-04-11 16:15:00,
2013-04-11 10:30:00,48.1,19.0,29.90,NW,325,12.0,15.0,31,0.00,,,0.00,weatherlink.com 1.10,2013-04-11 16:30:00,
2013-04-11 10:46:00,48.9,19.0,29.89,North,355,2.0,13.0,31,0.00,,,0.00,weatherlink.com 1.10,2013-04-11 16:46:00,
2013-04-11 11:01:00,51.0,20.0,29.89,North,11,2.0,10.0,30,0.00,,,0.00,weatherlink.com 1.10,2013-04-11 17:01:00,
2013-04-11 11:16:00,51.9,20.0,29.88,North,5,5.0,15.0,29,0.00,,,0.00,weatherlink.com 1.10,2013-04-11 17:16:00,
2013-04-11 11:31:00,52.8,20.0,29.87,NNE,22,4.0,12.0,28,0.00,,,0.00,weatherlink.com 1.10,2013-04-11 17:31:00,
2013-04-11 12:01:00,55.3,21.0,29.86,NE,44,0.0,11.0,26,0.00,,,0.00,weatherlink.com 1.10,2013-04-11 18:01:00,
2013-04-11 12:31:00,56.2,21.0,29.83,West,261,2.0,14.0,25,0.00,,,0.00,weatherlink.com 1.10,2013-04-11 18:31:00,
2013-04-11 12:46:00,57.1,22.0,29.82,North,355,3.0,8.0,26,0.00,,,0.00,weatherlink.com 1.10,2013-04-11 18:46:00,
2013-04-11 13:16:00,60.5,22.0,29.81,SSW,211,6.0,8.0,23,0.00,,,0.00,weatherlink.com 1.10,2013-04-11 19:16:00,
2013-04-11 13:46:00,61.1,22.0,29.80,NW,321,7.0,14.0,22,0.00,,,0.00,weatherlink.com 1.10,2013-04-11 19:46:00,
2013-04-11 14:16:00,63.9,25.0,29.78,North,360,12.0,19.0,23,0.00,,,0.00,weatherlink.com 1.10,2013-04-11 20:16:00,
2013-04-11 14:46:00,64.1,26.0,29.76,North,5,10.0,22.0,24,0.00,,,0.00,weatherlink.com 1.10,2013-04-11 20:46:00,
2013-04-11 15:01:00,63.9,27.0,29.75,WNW,292,13.0,22.0,25,0.00,,,0.00,weatherlink.com 1.10,2013-04-11 21:01:00,
2013-04-11 15:16:00,64.2,28.0,29.74,NNW,331,9.0,22.0,25,0.00,,,0.00,weatherlink.com 1.10,2013-04-11 21:16:00,
2013-04-11 15:31:00,63.2,28.0,29.73,North,360,9.0,19.0,26,0.00,,,0.00,weatherlink.com 1.10,2013-04-11 21:31:00,
2013-04-11 16:01:00,64.4,28.0,29.72,WNW,283,7.0,24.0,25,0.00,,,0.00,weatherlink.com 1.10,2013-04-11 22:01:00,
2013-04-11 16:16:00,65.8,28.0,29.71,NNW,327,9.0,22.0,24,0.00,,,0.00,weatherlink.com 1.10,2013-04-11 22:16:00,
2013-04-11 16:31:00,64.4,28.0,29.71,NW,325,17.0,19.0,25,0.00,,,0.00,weatherlink.com 1.10,2013-04-11 22:31:00,
2013-04-11 16:47:00,63.0,27.0,29.70,North,5,10.0,22.0,25,0.00,,,0.00,weatherlink.com 1.10,2013-04-11 22:47:00,
2013-04-11 17:02:00,62.9,27.0,29.69,NW,323,13.0,20.0,26,0.00,,,0.00,weatherlink.com 1.10,2013-04-11 23:02:00,
2013-04-11 17:17:00,62.5,27.0,29.69,NNW,344,11.0,17.0,26,0.00,,,0.00,weatherlink.com 1.10,2013-04-11 23:17:00,
2013-04-11 17:32:00,62.6,28.0,29.70,NNW,348,11.0,18.0,27,0.00,,,0.00,weatherlink.com 1.10,2013-04-11 23:32:00,
2013-04-11 17:47:00,61.7,28.0,29.70,NW,309,7.0,18.0,28,0.00,,,0.00,weatherlink.com 1.10,2013-04-11 23:47:00,
2013-04-11 18:02:00,61.4,28.0,29.70,NNE,13,10.0,21.0,28,0.00,,,0.00,weatherlink.com 1.10,2013-04-12 00:02:00,
2013-04-11 18:17:00,60.7,27.0,29.70,North,360,12.0,18.0,28,0.00,,,0.00,weatherlink.com 1.10,2013-04-12 00:17:00,
2013-04-11 18:32:00,61.0,27.0,29.70,North,5,9.0,17.0,28,0.00,,,0.00,weatherlink.com 1.10,2013-04-12 00:32:00,
2013-04-11 18:47:00,60.4,28.0,29.70,North,350,10.0,18.0,29,0.00,,,0.00,weatherlink.com 1.10,2013-04-12 00:47:00,
2013-04-11 19:02:00,60.0,28.0,29.70,North,355,4.0,19.0,30,0.00,,,0.00,weatherlink.com 1.10,2013-04-12 01:02:00,
2013-04-11 19:17:00,59.4,28.0,29.70,NNW,340,3.0,17.0,30,0.00,,,0.00,weatherlink.com 1.10,2013-04-12 01:17:00,
2013-04-11 19:32:00,58.9,29.0,29.70,NNW,344,6.0,18.0,32,0.00,,,0.00,weatherlink.com 1.10,2013-04-12 01:32:00,
2013-04-11 19:47:00,58.5,29.0,29.70,NNW,348,12.0,17.0,32,0.00,,,0.00,weatherlink.com 1.10,2013-04-12 01:47:00,
2013-04-11 20:02:00,58.1,28.0,29.71,NW,317,13.0,20.0,32,0.00,,,0.00,weatherlink.com 1.10,2013-04-12 02:02:00,
2013-04-11 20:17:00,57.8,28.0,29.71,NNW,340,7.0,14.0,32,0.00,,,0.00,weatherlink.com 1.10,2013-04-12 02:17:00,
2013-04-11 20:32:00,57.5,28.0,29.71,NNW,339,5.0,15.0,32,0.00,,,0.00,weatherlink.com 1.10,2013-04-12 02:32:00,
2013-04-11 20:46:00,57.3,29.0,29.71,North,360,5.0,13.0,34,0.00,,,0.00,weatherlink.com 1.10,2013-04-12 02:46:00,
2013-04-11 21:01:00,57.0,29.0,29.72,NNW,344,3.0,10.0,34,0.00,,,0.00,weatherlink.com 1.10,2013-04-12 03:01:00,
2013-04-11 21:16:00,56.8,29.0,29.73,NNE,12,3.0,12.0,35,0.00,,,0.00,weatherlink.com 1.10,2013-04-12 03:16:00,
2013-04-11 21:31:00,56.7,29.0,29.73,NNE,17,11.0,11.0,35,0.00,,,0.00,weatherlink.com 1.10,2013-04-12 03:31:00,
2013-04-11 21:46:00,56.4,29.0,29.73,North,355,2.0,13.0,35,0.00,,,0.00,weatherlink.com 1.10,2013-04-12 03:46:00,
2013-04-11 22:01:00,56.2,29.0,29.74,North,350,6.0,14.0,35,0.00,,,0.00,weatherlink.com 1.10,2013-04-12 04:01:00,
2013-04-11 22:16:00,55.8,29.0,29.74,North,5,4.0,13.0,36,0.00,,,0.00,weatherlink.com 1.10,2013-04-12 04:16:00,
2013-04-11 22:31:00,55.6,29.0,29.74,NNW,336,5.0,12.0,36,0.00,,,0.00,weatherlink.com 1.10,2013-04-12 04:31:00,
2013-04-11 22:46:00,55.1,28.0,29.74,North,360,3.0,14.0,36,0.00,,,0.00,weatherlink.com 1.10,2013-04-12 04:46:00,
2013-04-11 23:01:00,54.5,28.0,29.75,NNE,16,3.0,12.0,37,0.00,,,0.00,weatherlink.com 1.10,2013-04-12 05:01:00,
2013-04-11 23:16:00,53.9,28.0,29.75,North,5,2.0,10.0,37,0.00,,,0.00,weatherlink.com 1.10,2013-04-12 05:16:00,
2013-04-11 23:31:00,53.4,28.0,29.74,North,355,0.0,7.0,38,0.00,,,0.00,weatherlink.com 1.10,2013-04-12 05:31:00,
2013-04-11 23:47:00,52.9,28.0,29.75,North,11,4.0,5.0,39,0.00,,,0.00,weatherlink.com 1.10,2013-04-12 05:47:00,